sat.trackr.live / text

‹ back to catalog

STARLINK-3560

NORAD 51859 · 2022-022H

PAYLOAD ACTIVE UNKNOWN

§ Identity

Operator
Country
US
Launch date
2022-03-03
Launch site
AFETR
Launch vehicle
Mass (kg)
RCS (m²)

Purposes: comms

External: N2YO · Heavens-Above · Gunter

§ Orbital elements

Epoch: 2026-09-19T11:11:51.871776Z

Period
94.01 min
Inclination
53.1604°
Eccentricity
0.0001531
Mean motion
15.31702330 rev/d
Perigee alt
469.7 km
Apogee alt
471.8 km
Semi-major
6,848.9 km
B*
9.6859e-5
RAAN
206.5839°
Arg perigee
75.6444°
Mean anomaly
284.4727°
Rev number
25,258

§ Raw data

STARLINK-35601 51859U 22022H   26262.46657259  .00002642  00000+0  96859-4 0  99922 51859  53.1604 206.5839 0001531  75.6444 284.4727 15.31702330252583

JSON: /api/v1/satellites/51859 · /tle

For live sub-satellite position, see the globe view (requires WebGL).

§ Visibility from observer

Set your observer location to see the next 7 days of passes ≥ 10°. The values pass through the URL so the page stays shareable.

No JS? Fill the form by hand. The geolocation button needs JavaScript.